Voltar ao catálogo

STARLINK-36433

AtivoComunicaçõesVLEO
NORAD 67501·PAYLOAD·🇺🇸 United States

Lançado Jan 18, 2026 de Cape Canaveral Space Force Station

Loading…

Próximas Passagens (próximas 24 horas)

TLE

AtualizadoSource: CelesTrak SupGP

Época: Sep 14, 2026, 23:16 UTC

1 67501C 26012J   26257.96993056 -.00003411  00000+0 -12356-3 0  2576
2 67501  43.0024 325.4316 0001660 265.9941 323.4898 15.27578062    18

Acompanhe STARLINK-36433 em tempo real com AllMySat

Download on the App Store